Home   Weather   Seelze   Past weeks

Flag for Germany Past Weather in Seelze, Lower Saxony, Germany — Yesterday and Last 2 Weeks

45 °F

Drizzle. Fog.

Feels Like: 41 °F
Forecast: 38 / 49 °F
Wind: 6 mph from Northeast

Location: Hannover

Current Time: Oct 25, 2016 at 6:56:34 AM

Latest Report: Oct 25, 2016 at 6:20 AM

Visibility: 1 mi

Pressure: 30.07 "Hg

Humidity: 100%

Dew Point: 45 °F

Location of SeelzeLocation

Past Weather in Seelze — Graph


Seelze Temperature Yesterday

Maximum temperature yesterday: 46 °F (at 2:20 PM)
Minimum temperature yesterday: 36 °F (at 1:50 AM)
Average temperature yesterday: 43 °F

High & Low Weather Summary for the Past Weeks

High63 °F (Oct 16, 1:20 PM)100% (Oct 10, 6:20 AM)30.24 "Hg (Oct 10, 6:20 AM)
Low32 °F (Oct 23, 7:50 AM)50% (Oct 23, 2:20 PM)29.74 "Hg (Oct 15, 5:20 AM)
Average47 °F89%30.03 "Hg
* Reported Oct 10 5:20 AM — Oct 25 5:20 AM, Seelze, Weather by CustomWeather, © 2016

Note: Actual official high and low records may vary slightly from our data, if they occured in-between our weather recording intervals... More about our weather records


Seelze Weather History for the Previous 24 Hours

Scroll right to see more
Time TempWeatherWind HumidityBarometerVisibility
5:20 AM
Tue, Oct 25
45 °FDrizzle. Fog.3 mph100%30.04 "Hg1 mi
4:50 AM45 °FDrizzle. Fog.6 mph100%30.04 "Hg1 mi
4:20 AM45 °FLight rain. Fog.5 mph100%30.04 "Hg2 mi
3:50 AM45 °FLight rain. Fog.7 mph100%30.04 "Hg2 mi
3:20 AM45 °FFog.8 mph100%30.04 "Hg1 mi
2:50 AM45 °FFog.8 mph100%30.04 "Hg1 mi
2:20 AM45 °FFog.7 mph100%30.04 "Hg1 mi
1:50 AM45 °FFog.7 mph100%30.04 "Hg2 mi
1:20 AM46 °FDrizzle. Fog.5 mph93%30.04 "Hg2 mi
12:50 AM46 °FDrizzle. Fog.8 mph93%30.01 "Hg2 mi
12:20 AM46 °FDrizzle. Fog.8 mph93%30.01 "Hg2 mi
11:50 PM
Mon, Oct 24
46 °FDrizzle. Fog.6 mph93%30.01 "Hg2 mi
11:20 PM46 °FLight rain. Fog.6 mph93%30.01 "Hg2 mi
10:50 PM46 °FLight rain. Fog.7 mph93%30.01 "Hg3 mi
10:20 PM46 °FLight rain. Fog.7 mph93%30.01 "Hg3 mi
9:50 PM46 °FLight rain. Fog.6 mph93%30.01 "Hg3 mi
9:20 PM45 °FFog.8 mph100%30.01 "Hg3 mi
8:50 PM45 °FFog.7 mph100%30.01 "Hg3 mi
8:20 PM45 °FFog.7 mph100%30.01 "Hg3 mi
7:50 PM45 °FFog.9 mph93%30.01 "Hg3 mi
7:20 PM45 °FLight rain. Fog.9 mph93%30.01 "Hg2 mi
6:50 PM45 °FLight rain. Fog.9 mph93%30.01 "Hg2 mi
6:20 PM45 °FRain. Fog.12 mph93%30.01 "Hg2 mi
5:50 PM45 °FLight rain. Fog.10 mph93%30.01 "Hg2 mi
5:20 PM45 °FLight rain. Fog.12 mph93%30.01 "Hg2 mi
4:50 PM45 °FLight rain. Fog.13 mph93%29.98 "Hg3 mi
4:20 PM45 °FLight rain. Fog.12 mph93%29.98 "Hg3 mi
3:50 PM45 °FLight rain. Partly sunny.10 mph93%29.98 "Hg4 mi
3:20 PM46 °FPartly sunny.12 mph87%29.98 "HgN/A
2:50 PM46 °FBroken clouds.10 mph87%29.98 "HgN/A
2:20 PM46 °FBroken clouds.10 mph87%29.98 "HgN/A
1:50 PM45 °FBroken clouds.10 mph93%29.98 "Hg5 mi
1:20 PM45 °FPartly sunny.8 mph87%29.98 "Hg5 mi
12:50 PM45 °FPartly sunny.12 mph87%30.01 "Hg4 mi
12:20 PM45 °FPartly sunny.12 mph87%30.01 "Hg4 mi
11:50 AM45 °FFog.10 mph87%30.01 "Hg3 mi
11:20 AM43 °FFog.9 mph93%30.01 "Hg3 mi
10:50 AM43 °FFog.7 mph93%30.01 "Hg2 mi
10:20 AM43 °FFog.9 mph93%30.01 "Hg2 mi
9:50 AM43 °FFog.8 mph93%30.01 "Hg2 mi
9:20 AM41 °FFog.6 mph100%30.01 "Hg1 mi
8:50 AM41 °FFog.7 mph100%30.01 "Hg1 mi
8:20 AM41 °FFog.7 mph100%30.01 "Hg1 mi
7:50 AM41 °FFog.9 mph100%29.98 "Hg1 mi
7:20 AM41 °FFog.8 mph100%29.98 "Hg1 mi
6:50 AM41 °FFog.8 mph100%29.98 "Hg1 mi
6:20 AM41 °FFog.6 mph100%29.98 "Hg1 mi
Weather by CustomWeather, © 2016

See weather overviewHow to use our weather pages